When you browse on this site, cookies collect data to enhance your experience and personalize the content and advertising you see.
Visit our Privacy Policy to learn more. By continuing to use the site, you agree to this use of cookies and data.
  • In Schweiz
  • Länderverzeichnis
  • Für 7 Tage
  • Wassertemperatur
  • Satellitenkarten
  • Wetterkarte
  • Widgets
  • user-avatar
    Anmelden

    Stündliche Wetter Platonove

    Heute, 25 April, Donnerstag

    Zeit Temperatur Niederschläge Wind Luftdruck Luftfeuchtigkeit
    00:00 +9°C° 0 mm 2 m/S 756 mmHg 62%
    01:00 +8°C° 0 mm 2 m/S 756 mmHg 63%
    02:00 +8°C° 0 mm 1 m/S 756 mmHg 65%
    03:00 +8°C° 0 mm 1 m/S 756 mmHg 65%
    04:00 +8°C° 0 mm 1 m/S 756 mmHg 65%
    05:00 +7°C° 0 mm 1 m/S 756 mmHg 66%
    06:00 +8°C° 0 mm 2 m/S 756 mmHg 62%
    07:00 +10°C° 0 mm 2 m/S 756 mmHg 57%
    08:00 +12°C° 0 mm 3 m/S 756 mmHg 53%
    09:00 +13°C° 0 mm 4 m/S 756 mmHg 49%
    10:00 +15°C° 0 mm 4 m/S 756 mmHg 45%
    11:00 +17°C° 0 mm 5 m/S 756 mmHg 41%
    12:00 +17°C° 0 mm 5 m/S 755 mmHg 39%
    13:00 +19°C° 0 mm 5 m/S 755 mmHg 38%
    14:00 +20°C° 0 mm 5 m/S 755 mmHg 36%
    15:00 +20°C° 0 mm 5 m/S 754 mmHg 38%
    16:00 +20°C° 0 mm 5 m/S 754 mmHg 39%
    17:00 +19°C° 0 mm 5 m/S 754 mmHg 41%
    18:00 +17°C° 0 mm 4 m/S 754 mmHg 47%
    19:00 +15°C° 0 mm 4 m/S 754 mmHg 53%
    20:00 +13°C° 0 mm 4 m/S 753 mmHg 59%
    21:00 +12°C° 0 mm 3 m/S 753 mmHg 62%
    22:00 +11°C° 0 mm 3 m/S 753 mmHg 64%
    23:00 +10°C° 0 mm 3 m/S 753 mmHg 66%

    Morgen, 26 April, Freitag

    Zeit Temperatur Niederschläge Wind Luftdruck Luftfeuchtigkeit
    00:00 +9°C° 0 mm 3 m/S 753 mmHg 68%
    01:00 +9°C° 0 mm 3 m/S 753 mmHg 69%
    02:00 +8°C° 0 mm 3 m/S 753 mmHg 70%
    03:00 +8°C° 0 mm 3 m/S 753 mmHg 72%
    04:00 +7°C° 0 mm 2 m/S 753 mmHg 74%
    05:00 +7°C° 0 mm 2 m/S 753 mmHg 76%
    06:00 +9°C° 0 mm 3 m/S 753 mmHg 72%
    07:00 +10°C° 0 mm 3 m/S 753 mmHg 67%
    08:00 +12°C° 0 mm 4 m/S 753 mmHg 63%
    09:00 +14°C° 0 mm 4 m/S 753 mmHg 57%
    10:00 +16°C° 0 mm 5 m/S 752 mmHg 51%
    11:00 +19°C° 0 mm 5 m/S 752 mmHg 45%
    12:00 +20°C° 0 mm 5 m/S 752 mmHg 43%
    13:00 +20°C° 0 mm 5 m/S 752 mmHg 42%
    14:00 +21°C° 0 mm 5 m/S 751 mmHg 41%
    15:00 +21°C° 0 mm 5 m/S 751 mmHg 42%
    16:00 +20°C° 0 mm 5 m/S 751 mmHg 43%
    17:00 +20°C° 0 mm 6 m/S 750 mmHg 44%
    18:00 +17°C° 0 mm 5 m/S 750 mmHg 48%
    19:00 +15°C° 0 mm 5 m/S 750 mmHg 52%
    20:00 +14°C° 0 mm 5 m/S 750 mmHg 56%
    21:00 +13°C° 0 mm 4 m/S 750 mmHg 59%
    22:00 +12°C° 0 mm 4 m/S 750 mmHg 62%
    23:00 +11°C° 0 mm 4 m/S 750 mmHg 64%

    übermorgen, 27 April, Samstag

    Zeit Temperatur Niederschläge Wind Luftdruck Luftfeuchtigkeit
    00:00 +10°C° 0 mm 3 m/S 750 mmHg 66%
    01:00 +10°C° 0 mm 3 m/S 750 mmHg 68%
    02:00 +9°C° 0 mm 3 m/S 749 mmHg 69%
    03:00 +9°C° 0 mm 3 m/S 749 mmHg 70%
    04:00 +9°C° 0 mm 3 m/S 749 mmHg 71%
    05:00 +8°C° 0 mm 3 m/S 749 mmHg 72%
    06:00 +10°C° 0 mm 4 m/S 749 mmHg 67%
    07:00 +12°C° 0 mm 5 m/S 749 mmHg 62%
    08:00 +13°C° 0 mm 6 m/S 749 mmHg 56%
    09:00 +15°C° 0 mm 6 m/S 749 mmHg 52%
    10:00 +17°C° 0 mm 7 m/S 748 mmHg 48%
    11:00 +20°C° 0 mm 7 m/S 748 mmHg 43%
    12:00 +21°C° 0 mm 7 m/S 748 mmHg 43%
    13:00 +22°C° 0 mm 7 m/S 747 mmHg 42%
    14:00 +22°C° 0 mm 7 m/S 747 mmHg 41%
    15:00 +22°C° 0 mm 7 m/S 747 mmHg 42%
    16:00 +21°C° 0 mm 7 m/S 746 mmHg 44%
    17:00 +21°C° 0 mm 6 m/S 746 mmHg 45%
    18:00 +19°C° 0 mm 6 m/S 746 mmHg 49%
    19:00 +16°C° 0 mm 5 m/S 746 mmHg 53%
    20:00 +14°C° 0 mm 5 m/S 746 mmHg 58%
    21:00 +13°C° 0 mm 5 m/S 746 mmHg 60%
    22:00 +12°C° 0 mm 4 m/S 745 mmHg 63%
    23:00 +11°C° 0 mm 4 m/S 745 mmHg 66%

    28 April, Sonntag

    Zeit Temperatur Niederschläge Wind Luftdruck Luftfeuchtigkeit
    00:00 +10°C° 0 mm 4 m/S 745 mmHg 67%
    01:00 +10°C° 0 mm 4 m/S 745 mmHg 68%
    02:00 +9°C° 0 mm 3 m/S 745 mmHg 69%
    03:00 +9°C° 0 mm 3 m/S 744 mmHg 69%
    04:00 +7°C° 0 mm 4 m/S 744 mmHg 70%
    05:00 +7°C° 0 mm 4 m/S 744 mmHg 70%
    06:00 +10°C° 0 mm 4 m/S 744 mmHg 66%
    07:00 +10°C° 0 mm 5 m/S 744 mmHg 61%
    08:00 +13°C° 0 mm 5 m/S 744 mmHg 57%
    09:00 +14°C° 0 mm 5 m/S 744 mmHg 53%
    10:00 +16°C° 0 mm 6 m/S 744 mmHg 49%
    11:00 +19°C° 0 mm 6 m/S 744 mmHg 45%
    12:00 +19°C° 0 mm 6 m/S 744 mmHg 48%
    13:00 +20°C° 0 mm 6 m/S 744 mmHg 52%
    14:00 +20°C° 0 mm 6 m/S 744 mmHg 55%
    15:00 +19°C° 0 mm 5 m/S 743 mmHg 61%
    16:00 +19°C° 0 mm 4 m/S 743 mmHg 66%
    17:00 +18°C° 0 mm 4 m/S 743 mmHg 72%
    18:00 +17°C° 0 mm 3 m/S 744 mmHg 77%
    19:00 +16°C° 0 mm 3 m/S 744 mmHg 81%
    20:00 +13°C° 0 mm 3 m/S 744 mmHg 86%
    21:00 +12°C° 0 mm 3 m/S 744 mmHg 88%
    22:00 +12°C° 0 mm 2 m/S 744 mmHg 90%
    23:00 +10°C° 0 mm 2 m/S 744 mmHg 92%

    29 April, Montag

    Zeit Temperatur Niederschläge Wind Luftdruck Luftfeuchtigkeit
    00:00 +10°C° 0 mm 2 m/S 744 mmHg 92%
    01:00 +9°C° 0 mm 2 m/S 744 mmHg 92%
    02:00 +9°C° 0 mm 2 m/S 744 mmHg 92%
    03:00 +9°C° 0 mm 1 m/S 744 mmHg 92%
    04:00 +9°C° 0 mm 1 m/S 744 mmHg 91%
    05:00 +9°C° 0 mm 1 m/S 744 mmHg 91%
    06:00 +11°C° 0 mm 1 m/S 744 mmHg 83%
    07:00 +13°C° 0 mm 1 m/S 744 mmHg 76%
    08:00 +14°C° 0 mm 1 m/S 745 mmHg 68%
    09:00 +16°C° 0 mm 1 m/S 744 mmHg 63%
    10:00 +18°C° 0 mm 2 m/S 744 mmHg 58%
    11:00 +19°C° 0 mm 2 m/S 744 mmHg 53%
    12:00 +20°C° 0 mm 2 m/S 744 mmHg 50%
    13:00 +21°C° 0 mm 2 m/S 744 mmHg 46%
    14:00 +23°C° 0 mm 2 m/S 743 mmHg 43%
    15:00 +23°C° 0 mm 2 m/S 743 mmHg 46%
    16:00 +21°C° 0 mm 2 m/S 743 mmHg 49%
    17:00 +22°C° 0 mm 1 m/S 742 mmHg 51%
    18:00 +20°C° 0.4 mm 2 m/S 742 mmHg 57%
    19:00 +18°C° 0.4 mm 3 m/S 742 mmHg 63%
    20:00 +17°C° 0.4 mm 3 m/S 742 mmHg 70%
    21:00 +16°C° 1.1 mm 3 m/S 742 mmHg 75%
    22:00 +14°C° 1.1 mm 3 m/S 742 mmHg 80%
    23:00 +13°C° 1.1 mm 3 m/S 742 mmHg 85%

    30 April, Dienstag

    Zeit Temperatur Niederschläge Wind Luftdruck Luftfeuchtigkeit
    00:00 +13°C° 0.5 mm 3 m/S 742 mmHg 85%
    01:00 +13°C° 0.5 mm 3 m/S 742 mmHg 85%
    02:00 +13°C° 0.5 mm 3 m/S 742 mmHg 85%
    03:00 +12°C° 0.2 mm 3 m/S 742 mmHg 86%
    04:00 +12°C° 0.2 mm 3 m/S 741 mmHg 88%
    05:00 +11°C° 0.2 mm 3 m/S 741 mmHg 89%
    06:00 +12°C° 0.2 mm 4 m/S 741 mmHg 86%
    07:00 +13°C° 0.2 mm 5 m/S 741 mmHg 82%
    08:00 +14°C° 0.2 mm 5 m/S 741 mmHg 79%
    09:00 +14°C° 0 mm 5 m/S 741 mmHg 78%
    10:00 +15°C° 0 mm 6 m/S 741 mmHg 77%
    11:00 +15°C° 0 mm 6 m/S 741 mmHg 76%
    12:00 +16°C° 0.3 mm 5 m/S 741 mmHg 73%
    13:00 +17°C° 0.3 mm 5 m/S 740 mmHg 70%
    14:00 +19°C° 0.3 mm 5 m/S 740 mmHg 67%
    15:00 +19°C° 0.5 mm 4 m/S 740 mmHg 66%
    16:00 +19°C° 0.5 mm 4 m/S 739 mmHg 65%
    17:00 +19°C° 0.5 mm 4 m/S 739 mmHg 64%
    18:00 +17°C° 0.1 mm 4 m/S 739 mmHg 69%
    19:00 +15°C° 0.1 mm 4 m/S 739 mmHg 75%
    20:00 +14°C° 0.1 mm 4 m/S 739 mmHg 81%
    21:00 +13°C° 0.5 mm 3 m/S 739 mmHg 85%
    22:00 +12°C° 0.5 mm 3 m/S 738 mmHg 89%
    23:00 +13°C° 0.5 mm 2 m/S 738 mmHg 92%
    Mehr zeigen